Regional Weather Roundup
Issued by NWS Mobile, AL

Home | Current Version | Previous Version | Text Only | Print | Product List | Glossary On
Versions: 1 2 3 4 5 6 7 8 9 10 11 12 13 14 15 16 17 18 19 20 21 22 23 24 25 26 27
000
ASUS44 KMOB 250012
RWRMOB
REGIONAL WEATHER ROUNDUP
NATIONAL WEATHER SERVICE MOBILE AL
600 PM CST FRI NOV 24 2017

NOTE: "FAIR" INDICATES FEW OR NO CLOUDS BELOW 12,000 FEET WITH NO
      SIGNIFICANT WEATHER AND/OR OBSTRUCTIONS TO VISIBILITY.

  * THESE STATIONS ARE PART OF THE UNIVERSITY OF SOUTH ALABAMA
    MESONET AND ARE NOT UNDER NWS OR FAA QUALITY CONTROL.

ALZ061>064-250100-
COASTAL ALABAMA

CITY           SKY/WX    TMP DP  RH WIND       PRES   REMARKS
MOBILE REG APT PTCLDY    55  43  63 W3        29.97R
6HR MIN TEMP:  52; 6HR MAX TEMP:  69;

BROOKLEY FIELD PTCLDY    56  54  93 SW3       29.98R
6HR MIN TEMP:  56; 6HR MAX TEMP:  68;

USA CAMPUS*    NOT AVBL
DOG RIVER*     NOT AVBL


CITY           SKY/WX    TMP DP  RH WIND       PRES   REMARKS
GULF SHORES    PTCLDY    51  51 100 CALM      29.97R

$$

ALZ051>060-250100-
INTERIOR SOUTHWEST AND SOUTH CENTRAL ALABAMA

CITY           SKY/WX    TMP DP  RH WIND       PRES   REMARKS
GREENVILLE     CLEAR     54  48  80 CALM      29.95R
6HR MIN TEMP:  54; 6HR MAX TEMP:  70;

EVERGREEN      CLEAR     53  49  86 CALM      29.96R
6HR MIN TEMP:  53; 6HR MAX TEMP:  70;

ATMORE*          N/A    N/A N/A N/A CALM        N/A
ANDALUSIA/OPP  CLEAR     57  50  77 CALM      29.95S
6HR MIN TEMP:  57; 6HR MAX TEMP:  72;

ANDALUSIA*       N/A     55  50  82 CALM      29.95S
FLORALA APT    CLEAR     53  49  86 CALM      29.98S
6HR MIN TEMP:  53; 6HR MAX TEMP:  69;

FLORALA*         N/A     54  50  87 CALM      30.63S

$$

FLZ001>006-250100-
WESTERN FLORIDA PANHANDLE

CITY           SKY/WX    TMP DP  RH WIND       PRES   REMARKS
PENSACOLA      CLEAR     59  53  80 CALM      29.96R
6HR MIN TEMP:  59; 6HR MAX TEMP:  69;

NAS PENSACOLA  PTCLDY    56  53  90 W3        29.96R
6HR MIN TEMP:  56; 6HR MAX TEMP:  68;

MILTON         PTCLDY    54  53  97 CALM      29.96R
6HR MIN TEMP:  54; 6HR MAX TEMP:  70;

WHTNG S FIELD  PTCLDY    59  50  72 CALM      29.96S
6HR MIN TEMP:  59; 6HR MAX TEMP:  73;



CITY           SKY/WX    TMP DP  RH WIND       PRES   REMARKS
JAY*             N/A     57  48  72 SW5       29.97
DUKE FIELD     CLEAR     56  50  79 CALM      29.96R
CRESTVIEW      CLEAR     53  49  86 CALM      29.98R
6HR MIN TEMP:  53; 6HR MAX TEMP:  71;

VALPARAISO     PTCLDY    60  51  72 W5        29.96R
6HR MIN TEMP:  60; 6HR MAX TEMP:  68;

DESTIN         CLEAR     61  52  72 CALM      29.96S
6HR MIN TEMP:  61; 6HR MAX TEMP:  70;


$$

MSZ076-079-250100-
INTERIOR SOUTHEAST MISSISSIPPI

CITY           SKY/WX    TMP DP  RH WIND       PRES   REMARKS
LEAKESVILLE*     N/A     54  39  58 CALM      29.97S
AGRICOLA*        N/A     50  43  76 CALM      29.95S

$$

MARINE OBSERVATIONS

STATION/POSITION TIME  TEMP    WIND        PRES    WAVE
                       AIR SEA DIR/SP/G            HT/PER
                 (UTC) (F)     (DEG/KT/KT) (MB)    (FT/S)
PASCAGOULA       2348   56     290/  4/  5 1014.7R
PETIT BOIS ISLND 2348   59     290/  6/  7 1015.5R
GRAND BAY        2245   60     250/  4     1015.0S
KATRINA CUT      2330   60     260/  6     1014.9R
CEDAR POINT      2330   59     260/  6     1014.2R
E DAUPHIN ISLAND 2300   60     240/  3/  4 1014.3S
MIDDLE BAY LIGHT 2330   60     180/  4     1014.2R
USCG MOBILE BAY  2348   58 63  250/  1/  2 1014.6R
STATE DOCKS      2348   62 65              1014.4R
MEAHER PARK      2330   60     120/  2     1013.9F
WEEKS BAY        2245   60                 1014.0S
FORT MORGAN      2348   61     270/  6/  6   N/A
12 S ORANGE BCH  NOT AVBL
PENSACOLA BAY    2348   62 61              1014.8R
64 S DAUPHIN ISL 0000   65 77  290/  4/  8 1015.1
67 S FORT MORGAN 2330   65        CALM     1014.6S

$$

SELECTED LOCATIONS ACROSS THE REGION

CITY           SKY/WX    TMP DP  RH WIND       PRES   REMARKS
NEW ORLEANS    PTCLDY    54  35  48 CALM      29.97S
GULFPORT       CLEAR     49  42  77 CALM      29.96F
PASCAGOULA AP  CLEAR     48  43  82 CALM      29.97R
PASCAGOULA*      N/A     50  45  81 CALM        N/A
HATTIESBURG    CLEAR     51  40  65 CALM      29.96R
LAUREL         PTCLDY    48  39  71 CALM      29.96S
MERIDIAN       CLEAR     49  38  65 CALM      29.95R
JACKSON        PTCLDY    52  33  48 CALM      29.94R
MONTGOMERY     CLEAR     54  45  71 CALM      29.95S
TROY           CLEAR     54  49  83 CALM      29.97R
ASHFORD*         N/A     55  50  82 CALM      29.95S
DOTHAN         CLEAR     51  46  83 CALM      30.00R
PANAMA CITY    CLEAR     56  52  86 CALM      29.96R

$$





USA.gov is the U.S. government's official web portal to all federal, state and local government web resources and services.